Flag for China Weather past 2 weeks in Foochow, Fujian, China

Now
52 °F

Clear.


Feels Like: 47 °F
Forecast: 37 / 56 °F
Wind: 13 mph from Northeast

Location: Fuzhou Airport

Current Time: Dec 21, 2014 at 6:52:38 PM

Latest Report: Dec 21, 2014 at 6:00 PM


Visibility: 5 mi

Pressure: 30.33 "Hg

Humidity: 54%

Dew point: 36 °F

Location of FoochowLocation

Historic Weather in Foochow — Graph

°F

Foochow temperature yesterday

Maximum temperature yesterday: 59 °F (at 11:00 AM)
Minimum temperature yesterday: 48 °F (at 5:00 AM)
Average temperature yesterday: 54 °F

Past Weeks' High & Low Weather Summary

 TemperatureHumidityPressure
High64 °F (Dec 15, 2:00 PM)94% (Dec 10, 3:00 AM)30.51 "Hg (Dec 10, 3:00 AM)
Low45 °F (Dec 17, 7:00 AM)28% (Dec 17, 10:00 AM)30.09 "Hg (Dec 10, 2:00 PM)
Average55 °F61%30.29 "Hg
* Reported Dec 6 5:00 PM — Dec 21 5:00 PM, Foochow, Weather by CustomWeather, © 2014

Note: Actual official high and low records may vary slightly from our data, if they occured in-between our weather recording intervals... More about our weather records

Advertising

Foochow weather history for previous 24 hours

 ConditionsComfort  
Time TempWeatherWind HumidityBarometerVisibility
5:00 PM
Dec 21
54 °FClear.13 mph54%30.30 "Hg5 mi
4:00 PM55 °FClear.15 mph47%30.30 "Hg4 mi
3:00 PM57 °FClear.13 mph51%30.27 "Hg4 mi
2:00 PM57 °FPassing clouds.13 mph48%30.27 "Hg4 mi
1:00 PM55 °FScattered clouds.10 mph51%30.30 "Hg4 mi
12:00 PM55 °FPartly sunny.13 mph47%30.33 "Hg4 mi
11:00 AM54 °FPartly sunny.10 mph51%30.36 "Hg4 mi
10:00 AM52 °FPartly sunny.8 mph50%30.36 "Hg4 mi
9:00 AM52 °FPartly sunny.13 mph50%30.36 "Hg4 mi
8:00 AM48 °FPartly sunny.6 mph66%30.33 "Hg4 mi
7:00 AM48 °FScattered clouds.6 mph66%30.30 "Hg4 mi
6:00 AM50 °FPassing clouds.8 mph62%30.30 "Hg5 mi
5:00 AM52 °FPassing clouds.13 mph58%30.27 "HgN/A
4:00 AM52 °FPassing clouds.15 mph62%30.27 "HgN/A
3:00 AM52 °FPassing clouds.15 mph67%30.27 "HgN/A
2:00 AM54 °FPassing clouds.20 mph63%30.27 "HgN/A
1:00 AM54 °FPassing clouds.20 mph67%30.27 "HgN/A
12:00 AM55 °FPassing clouds.17 mph59%30.27 "HgN/A
11:00 PM
Dec 20
55 °FPassing clouds.20 mph55%30.27 "HgN/A
10:00 PM55 °FPassing clouds.17 mph55%30.27 "HgN/A
9:00 PM55 °FPassing clouds.17 mph59%30.27 "HgN/A
8:00 PM55 °FClear.17 mph51%30.27 "Hg10 mi
7:00 PM54 °FClear.15 mph54%30.24 "Hg10 mi
6:00 PM54 °FClear.15 mph58%30.24 "Hg10 mi
Weather by CustomWeather, © 2014

See weather overviewHow to use our weather pages